COSMOS 397 DEB, 5019

Orbit data source: Space-Track

COSMOS 397 DEB, 5019 is space debris in LEO originally from a launch on Thu, 25 Feb 1971 UTC launched from the Tyuratam Missile And Space Complex (TTMTR). Debris objects in space refer to the collection of defunct objects orbiting the Earth. Examples of debris include non-operational satellites, rocket bodies, and fragments generated from explosions, collisions, or faulty payload assembly.

Loading next visibility...
Identifier
5019, 1971-015N
Orbit
LEO
Country
Flag of CISCIS
Related business
Manufacturer
Unknown
Mission
Spacecraft
Bus & Motor
Unknown
Mass
Unknown
Launch date (UTC)
1971-02-25 (55 years ago)
Launch vehicle
Unknown
Launch site
Tyuratam Missile And Space Complex (TTMTR)
Object type
Payload
Rocket body
Debris
Shape & HBR
Unknown shape, 0.1 m
Radar Cross Section
Small (<0.1 m²)

Expand to show TLE details & history
Last TLE update: 6 hours ago

TLE from 6 hours ago
0 COSMOS 397 DEB
1 05019U 71015N   25349.92122670  .00004486  00000-0  79292-3 0  9995
2 05019  65.6815 281.4641 0381430 112.5285 251.6643 14.30436260685989
Epoch: 2025-12-15T22:06Z
TLE epoch observation values (Epoch: 2025-12-15T22:06:33.986Z)
Latitude
-0.00009°
Longitude
-134.99041°
Altitude
887.556 km
Speed
7.36 km/s
True Right ascension
18h 45m 51s
True Declination
0° 00' 00"
Sunlit
Object was in daylight at epoch
Visualization orbit readout
Latitude
Unknown
Longitude
Unknown
Altitude
Unknown
Speed
Unknown
Apparent Right ascension
Unknown
Apparent Declination
Unknown
Sunlit
N/A
Visualization observer readout
Local Sidereal Time
03:07:58
Azimuth
Unknown
Elevation
Unknown
Doppler factor
Unknown
Orbital elements
Apogee altitude
1,062.132 km
Perigee altitude
515.398 km
Semi-major axis
7,166.902 km
Eccentricity
0.03814
Inclination
65.6815°
RAAN
281.4641°
Arg. of periapsis
112.5285°
True anomaly
247.58015°
Mean anomaly
251.6643°
Eccentric anomaly
249.61572°
Mean motion
3.57722 °/min
Orbital period
100.64 mins
BSTAR
0.00079292
Loading maneuver chart data...
Computing Atmospheric mass density...

Documentation

Showing up to 5 results
|